Location: Unspecified
(0.0000°N, 0.0000°E)
Time: 09:44:13
(UTC+00:00)

KAITUO 1B - Pass Details

Date: 02 April 2019
Orbit: 496 x 518 km, 97.5° (Epoch: 25 April)

Event Time Altitude Azimuth Distance (km) Brightness Sun altitude
Rises 18:26:00 0° 188° (S) 2,619 ? -5.6°
Reaches altitude 10° 18:28:19 10° 200° (SSW) 1,727 ? -6.2°
Maximum altitude 18:31:29 27° 259° (WSW) 1,007 ? -6.9°
Drops below altitude 10° 18:34:37 10° 317° (NW) 1,709 ? -7.7°
Sets 18:36:55 0° 330° (NNW) 2,585 ? -8.3°
